www.pogodaiklimat.ru

Погода и климат >> Архив погоды >> Украина >> Нижние Серогозы


ПОГОДА в Нижних Серогозах

  • Прогноз погоды в Нижних Серогозах
  • Монитор погоды в Нижних Серогозах

АРХИВ ПОГОДЫ в Нижних Серогозах

Время (UTC), дата Ветер
(напр.,м/с)
 
Видим.   Явления Облачность Т
(С)
Тd
(С)
f
(%)
Тe
(С)
Тes
(С)
Комфортность P
(гПа)
Po
(гПа)
Тmin
(С)
Tmax
(С)
R
(мм)
R24
(мм)
S
(см)
15 12.08 штиль 0 10 км 6/5 1000 м
[Cu hum Ac cast]
+32.1 +14.4 34 +34 +35 душно 1016.0 1010.0
18 12.08 В 2 4000 м 1/0
[Ac cast]
+26.9 +13.9 45 +29 +29 жарко 1017.3 1011.2 +33.5
21 12.08 В 2 4000 м ясно +22.3 +15.1 64 +26 +26 жарко 1017.8 1011.6
00 13.08 В 2 4000 м ясно +19.9 +15.0 73 +23 +23 комфорт 1017.8 1011.5
03 13.08 В 2 10 км 1/0
[Ci fib]
+18.9 +16.6 87 +21 +21 комфорт 1018.1 1011.8
06 13.08 ЮВ 2 10 км ясно +27.1 +18.1 58 +32 +38 очень
душно
1018.0 1011.9 +18.6
09 13.08 В 2 10 км 1/1 1000 м
[Cu hum]
+30.1 +13.8 37 +32 +45 жарко 1017.5 1011.4
12 13.08 В 2 10 км ясно +31.6 +12.5 31 +32 +44 жарко 1016.3 1010.3
15 13.08 В 4 10 км ясно +30.3 +12.7 34 +31 +33 жарко 1015.3 1009.3
18 13.08 ЮВ 4 4000 м ясно +24.1 +8.1 36 +25 +25 комфорт 1015.8 1009.6 +32.1
21 13.08 С 2 4000 м ясно +17.9 +10.8 63 +18 +18 1015.9 1009.6
00 14.08 С 2 4000 м ясно +16.1 +11.1 72 +16 +16 1015.3 1009.0
03 14.08 В 2 10 км ясно +16.7 +11.7 72 +17 +17 1014.9 1008.6
06 14.08 В 6 10 км ясно +26.5 +14.7 48 +29 +32 жарко 1014.2 1008.1 +15.1
09 14.08 В 8 10 км ясно +30.0 +11.6 32 +31 +33 жарко 1012.6 1006.6
12 14.08 В 10 10 км ясно +32.2 +9.2 24 +31 +32 жарко 1011.0 1005.0
15 14.08 В 8 10 км ясно +30.8 +9.6 27 +30 +31 жарко 1010.0 1004.0
18 14.08 В 4 4000 м ясно +24.1 +9.7 40 +25 +25 комфорт 1009.6 1003.5 +32.5
21 14.08 штиль 0 4000 м ясно +20.1 +12.7 62 +22 +22 комфорт 1008.9 1002.7
00 15.08 В 4 4000 м 3/0
[Ci sp]
+19.6 +12.5 64 +21 +21 комфорт 1007.8 1001.6
03 15.08 В 4 10 км 4/0
[Ac cast Ci fib]
+18.1 +12.3 69 +18 +18 1008.4 1002.1
06 15.08 В 4 10 км 10/0
[Ac cast Ci fib]
+26.5 +15.9 52 +30 +33 душно 1007.5 1001.4 +17.9
09 15.08 Ю 2 10 км 10/0
[Ac cast Ci sp]
+31.3 +7.7 23 +30 +38 жарко 1006.9 1000.9
12 15.08 штиль 0 10 км 10/0
[Ac As]
+31.2 +13.0 33 +32 +37 жарко 1006.1 1000.1
15 15.08 З 4 10 км {ливн. осадки} 10/4 600 м
[Cb cap Ac cuf Ci sp]
+27.7 +16.8 51 +31 +32 душно 1007.5 1001.5
18 15.08 З 2 4000 м {ливн. осадки} 10/0
[Ac As Ci sp]
+25.3 +16.6 59 +29 +29 душно 1007.7 1001.6 +32.2 0.0
21 15.08 штиль 0 4000 м 10/0
[Ac cast Ci sp]
+22.6 +16.7 69 +27 +27 душно 1007.6 1001.4
00 16.08 штиль 0 4000 м 10/0
[Ac cast Ci sp]
+20.1 +16.6 80 +23 +23 комфорт 1007.8 1001.6
03 16.08 штиль 0 10 км 9/0
[Ac cast Ci sp]
+18.0 +15.1 83 +18 +18 1007.9 1001.6
06 16.08 СЗ 2 10 км 3/0
[Ci fib]
+24.5 +14.6 54 +27 +33 жарко 1007.9 1001.8 +17.9
09 16.08 СЗ 2 10 км 3/0
[Ac cast Ci fib]
+29.0 +14.1 40 +31 +44 жарко 1007.7 1001.7
12 16.08 З 2 10 км 9/1 1000 м
[Cu hum Ac cast Ci sp]
+30.4 +13.8 36 +32 +38 жарко 1007.1 1001.1
18 16.08 СЗ 6 4000 м 10/0
[Ac cast Ci fib]
+24.7 +16.2 59 +28 +28 душно 1008.7 1002.6 +30.8
21 16.08 СЗ 4 4000 м 10/0
[Ac trans Cc]
+20.9 +15.4 71 +24 +24 комфорт 1009.8 1003.6
00 17.08 СЗ 2 4000 м зарница 10/3 600 м
[Cb calv Cc]
+18.9 +15.9 83 +21 +21 комфорт 1009.8 1003.6
03 17.08 З 2 8000 м дымка {ливн. осадки} 8/3 1000 м
[Sc Ac cast Ci fib]
+16.9 +15.0 89 +17 +17 1010.4 1004.1
06 17.08 СЗ 4 10 км {ливн. осадки} 10/6 600 м
[Cb calv Ac und]
+19.3 +15.0 76 +21 +21 комфорт 1010.6 1004.4 +16.4 0.0
12 17.08 СЗ 4 10 км 6/6 1000 м
[Cu hum]
+25.1 +11.1 41 +26 +29 жарко 1009.8 1003.7
18 17.08 СЗ 2 4000 м 3/0
[Ci fib]
+19.5 +12.2 63 +21 +21 комфорт 1011.3 1005.1 +25.4
00 18.08 СЗ 2 4000 м 3/0
[Ci fib]
+14.5 +12.1 86 +14 +14 1011.9 1005.5
06 18.08 СЗ 4 10 км 10/10 1000 м
[Sc]
+19.0 +13.8 72 +20 +20 1012.5 1006.2 +13.5
12 18.08 С 4 10 км 10/10 1000 м
[Cu Sc]
+22.6 +13.7 57 +26 +26 жарко 1013.6 1007.4
18 18.08 С 2 4000 м 9/0
[Ac und]
+19.8 +13.1 65 +22 +22 комфорт 1014.4 1008.1 +23.5
06 19.08 С 4 10 км ясно +22.3 +13.9 59 +25 +30 комфорт 1017.8 1011.6 +14.0

 

Местоположение метеостанции Нижние Серогозы (Херсонская область, Украина): широта 46.85 долгота 34.40 высота над уровнем моря 53 м.

В архиве по умолчанию представлена погода в Нижних Серогозах за последнюю неделю. Архивные данные за месяц целиком и за предыдущие месяцы, начиная с января 2011 года, Вы можете получить, выбрав интересующий диапазон дат из раскрывающегося списка и нажав кнопку "Ввод!".


*Определитесь, кто Вы:
робот инопланетянин человек

Внимание! Время в таблицах - всемирное. Для получения местного времени необходимо прибавить поправку, которая равна 2 ч.

Смотрите также архив погоды в соседних городах и на ближайших метеорологических станциях:

Погода в Аскании-Нове (Херсонская область, Украина) (60 км)
Погода в Мелитополе (Запорожская область, Украина) (74 км)
Погода в Новой Каховке (Херсонская область, Украина) (79 км)
Погода в Никополе (Днепропетровская область, Украина) (81 км)
Погода в Геническе (Херсонская область, Украина) (82 км)
Погода в Пришибе (Запорожская область, Украина) (85 км)
Погода в Великой Александровке (Херсонская область, Украина) (100 км)
Погода в Ботиево (Запорожская область, Украина) (112 км)
Погода в Ишуни (Крым, Россия) (113 км)
Погода в Хорлах (Херсонская область, Украина) (115 км)

Пояснения к столбцам:

Ветер - указаны скорость ветра в м/с - средняя за 10 мин, порывы в срок и между сроками (в фигурных скобках) и направление, откуда дует ветер: С - северный, СВ - северо-восточный, В - восточный, ЮВ - юго-восточный, Ю - южный, ЮЗ - юго-западный, З - западный, СЗ - северо-западный.
Видимость - горизонтальная дальность видимости в метрах или километрах. При видимости от 1 до 10 км при отсутствии осадков обычно наблюдается дымка, при ухудшении видимости до 1 км и менее - туман. В сухую погоду видимость может ухудшаться дымом, пылью или мглою.
Явления - указаны атмосферные явления, наблюдавшиеся в срок или в последний час перед сроком; фигурными скобками обозначены явления, наблюдавшиеся между сроками (за 1-3 часа до срока); квадратными скобками обозначены град или гололедные отложения с указанием их диаметра в мм.
Облачность - указаны через наклонную черту общая и нижняя облачность в баллах и высота нижней границы облаков в метрах; квадратными скобками обозначены формы облаков: Ci - перистые, Cs - перисто-слоистые, Cc - перисто-кучевые, Ac - высококучевые, As - высокослоистые, Sc - слоисто-кучевые, Ns - слоисто-дождевые, Cu - кучевые, Cb - кучево-дождевые. Подробнее классификацию облаков см. в Атласе облаков (PDF).
T - Температура воздуха - температура, измеренная на высоте 2 м над землей.
Td - Температура точки росы - температура, при понижении до которой содержащийся в воздухе водяной пар достигнет насыщения.
f - Относительная влажность воздуха - влажноcть воздуха, измеренная на высоте 2 м над землей.
Te - Эффективная температура - температура, которую ощущает одетый по сезону человек в тени. Характеристика душности погоды. При расчете учитывается влияние влажности воздуха и скорости ветра на теплоощущения человека.
Tes - Эффективная температура на солнце - температура, которую ощущает человек, с поправкой на солнечный нагрев. Характеристика знойности погоды. Зависит от высоты солнца над горизонтом, облачности и скорости ветра. Ночью, в пасмурную погоду, а также при ветре 12 м/с и более поправка равна нулю.
P - Атмосферное давление - приведенное к уровню моря атмосферное давление.
Po - Атмосферное давление - измеренное на уровне метеостанции атмосферное давление.
Tmin - Минимальная температура - минимум температуры воздуха на высоте 2 м над землей.
Tmax - Максимальная температура - максимум температуры воздуха на высоте 2 м над землей.
R - Количество осадков - Количество выпавших осадков за период времени, мм. При наведении курсора мыши на число - период времени, за который выпало указанное количество осадков.
R24 - Количество осадков - Количество выпавших осадков за 24 часа, мм.
S - Снежный покров - Высота снежного покрова, см. При наведении курсора мыши на число - состояние снежного покрова и степень покрытия местности в баллах.